Syracuse, NY

11:46 AM EST on January 20, 2017 (GMT -0500)
Syracuse Hancock International

Weather History for KSYR - March, 2014

Change the Weather History Date:

Saturday, March 8, 2014

  Actual Average Record
Temperature  
Mean Temperature 29 °F 31 °F  
Max Temperature 37 °F 40 °F 71 °F (2000)
Min Temperature 21 °F 22 °F -6 °F (1984)
Degree Days  
Heating Degree Days 36 34  
Month to date heating degree days 385 280  
Since 1 July heating degree days 5477 5111  
Cooling Degree Days 0 0  
Month to date cooling degree days 0 0  
Year to date cooling degree days 0 0  
Moisture  
Dew Point 23 °F    
Average Humidity 71    
Maximum Humidity 85    
Minimum Humidity 57    
Precipitation  
Precipitation T in 0.09 in 1.24 in (1930)
Month to date precipitation 0.19 0.69  
Year to date precipitation 5.74 5.26  
Snow  
Snow T in 0.80 in 5.50 in (1957)
Month to date snowfall 4.9 6.4  
Since 1 July snowfall 114.8 108.3  
Snow Depth 7.00 in    
Sea Level Pressure  
Sea Level Pressure 29.92 in    
Wind  
Wind Speed 6 mph (WNW)    
Max Wind Speed 14 mph    
Max Gust Speed 16 mph    
Visibility 10 miles    
Events Snow    
T = Trace of Precipitation, MM = Missing Value Source: NWS Daily Summary

Daily Weather History Graph

Daily Weather History Graph

Search for Another Location

Airport or City:

Trip Planner

Search our weather history database for the weather conditions in past years. The results will help you decide how hot, cold, wet, or windy it might be!

Date:

Astronomy

Mar. 08, 2014 Rise Set
Actual Time 6:28 AM EST 6:02 PM EST
Civil Twilight 6:00 AM EST 6:30 PM EST
Nautical Twilight 5:27 AM EST 7:03 PM EST
Astronomical Twilight 4:54 AM EST 7:36 PM EST
Moon 10:58 AM EST (3/8) 1:08 AM EST (3/8)
Length of Visible Light 12h 30m
Length of Day
11h 33m
First Quarter, 51% of the Moon is Illuminated
Mar 8
First Quarter
Mar 16
Full
Mar 23
Last Quarter
Mar 30
New
Apr 7
First Quarter

Hourly Weather History & Observations

Time (EST) Temp. Windchill Dew Point Humidity Pressure Visibility Wind Dir Wind Speed Gust Speed Precip Events Conditions
12:54 AM 24.1 °F 19.7 °F 14.0 °F 65% 29.89 in 10.0 mi ENE 3.5 mph - N/A   Clear
1:54 AM 23.0 °F 18.4 °F 14.0 °F 68% 29.87 in 10.0 mi ENE 3.5 mph - N/A   Partly Cloudy
2:54 AM 21.9 °F - 15.1 °F 75% 29.86 in 10.0 mi Calm Calm - N/A   Mostly Cloudy
3:54 AM 24.1 °F 19.7 °F 17.1 °F 75% 29.85 in 10.0 mi East 3.5 mph - N/A   Scattered Clouds
4:54 AM 25.0 °F - 18.0 °F 75% 29.86 in 10.0 mi Calm Calm - N/A   Overcast
5:54 AM 26.1 °F 21.9 °F 19.0 °F 75% 29.86 in 10.0 mi South 3.5 mph - N/A   Overcast
6:54 AM 27.0 °F - 19.9 °F 75% 29.87 in 10.0 mi Calm Calm - N/A   Overcast
7:54 AM 28.0 °F - 21.0 °F 75% 29.88 in 10.0 mi Calm Calm - N/A   Mostly Cloudy
8:54 AM 30.9 °F - 23.0 °F 72% 29.89 in 10.0 mi Calm Calm - N/A   Overcast
9:54 AM 36.0 °F 28.0 °F 26.1 °F 67% 29.89 in 10.0 mi West 11.5 mph - N/A   Overcast
10:54 AM 36.0 °F 29.0 °F 27.0 °F 70% 29.90 in 10.0 mi West 9.2 mph - N/A   Overcast
11:54 AM 37.0 °F 29.8 °F 27.0 °F 67% 29.91 in 10.0 mi NW 10.4 mph - N/A   Overcast
12:54 PM 36.0 °F 28.5 °F 27.0 °F 70% 29.91 in 10.0 mi WNW 10.4 mph - N/A   Overcast
1:54 PM 36.0 °F 29.6 °F 26.1 °F 67% 29.91 in 10.0 mi NW 8.1 mph - N/A   Overcast
2:54 PM 34.0 °F 25.5 °F 28.0 °F 79% 29.92 in 9.0 mi WNW 11.5 mph - 0.00 in Snow Light Snow
3:54 PM 32.0 °F 24.2 °F 28.0 °F 85% 29.93 in 9.0 mi NW 9.2 mph - 0.00 in Snow Light Snow
4:54 PM 30.9 °F 22.8 °F 26.1 °F 82% 29.94 in 9.0 mi NW 9.2 mph - 0.00 in Snow Light Snow
5:10 PM 30.2 °F 21.9 °F 26.6 °F 86% 29.94 in 9.0 mi NW 9.2 mph - 0.00 in Snow Light Snow
5:54 PM 30.0 °F 21.7 °F 25.0 °F 82% 29.97 in 5.0 mi WNW 9.2 mph - 0.00 in Snow Light Snow
6:08 PM 30.2 °F 21.9 °F 24.8 °F 80% 29.96 in 6.0 mi WNW 9.2 mph - 0.00 in Snow Light Snow
6:31 PM 28.4 °F 20.4 °F 24.8 °F 86% 29.97 in 9.0 mi WNW 8.1 mph - 0.00 in Snow Light Snow
6:54 PM 28.9 °F 21.1 °F 24.1 °F 82% 29.99 in 9.0 mi West 8.1 mph - 0.00 in Snow Light Snow
7:32 PM 28.4 °F 20.4 °F 23.0 °F 80% 29.98 in 9.0 mi West 8.1 mph - 0.00 in Snow Light Snow
7:54 PM 28.9 °F 21.9 °F 21.9 °F 75% 29.99 in 9.0 mi WNW 6.9 mph - 0.00 in Snow Light Snow
8:54 PM 28.9 °F 22.8 °F 21.0 °F 72% 30.00 in 10.0 mi West 5.8 mph - 0.00 in   Overcast
9:54 PM 28.0 °F 22.8 °F 21.9 °F 78% 30.00 in 10.0 mi West 4.6 mph - N/A   Overcast
10:54 PM 28.0 °F 22.8 °F 21.0 °F 75% 30.00 in 10.0 mi West 4.6 mph - N/A   Overcast
11:54 PM 28.0 °F 22.8 °F 21.9 °F 78% 30.00 in 10.0 mi West 4.6 mph - N/A   Overcast